Date,TemperatureHighF,TemperatureAvgF,TemperatureLowF,DewpointHighF,DewpointAvgF,DewpointLowF,HumidityHigh,HumidityAvg,HumidityLow,PressureMaxIn,PressureMinIn,WindSpeedMaxMPH,WindSpeedAvgMPH,GustSpeedMaxMPH,PrecipitationSumIn
2013-2-1,23.0,19.0,17.0,16.0,11.3,6.0,94,75,58,30.45,29.98,23,7,23,0.00
2013-2-2,20.0,17.2,13.0,20.0,13.5,5.0,100,89,69,30.45,30.22,17,6,20,0.02
2013-2-3,23.0,18.7,11.0,22.0,14.6,8.0,100,88,58,30.23,30.05,11,2,14,0.00
2013-2-4,21.0,17.2,13.0,18.0,10.4,6.0,93,78,63,30.25,30.13,16,5,19,0.00
2013-2-5,27.0,21.5,15.0,22.0,14.8,11.0,97,79,59,30.21,30.09,16,3,20,0.00
2013-2-6,27.0,24.7,20.0,23.0,16.0,9.0,90,73,54,30.62,30.13,18,5,21,0.00
2013-2-7,31.0,24.6,18.0,20.0,16.3,13.0,86,74,59,30.63,30.31,13,4,14,0.00
2013-2-8,33.0,25.9,17.0,33.0,23.7,15.0,100,94,79,30.41,30.02,8,2,11,0.47
2013-2-9,20.0,17.1,13.0,18.0,14.6,11.0,99,94,85,30.68,30.39,0,0,0,0.00
2013-2-10,41.0,24.7,5.0,28.0,16.6,3.0,97,77,49,30.66,30.16,8,2,11,0.17
2013-2-11,49.0,38.5,31.0,41.0,31.5,22.0,100,79,49,30.23,29.84,35,10,44,0.15
2013-2-12,33.0,31.8,31.0,31.0,26.0,21.0,100,83,70,30.24,30.01,26,10,44,0.00
2013-2-13,37.0,31.1,26.0,26.0,22.4,20.0,92,73,57,30.19,30.00,11,3,13,0.00
2013-2-14,38.0,32.4,24.0,35.0,27.3,20.0,99,85,61,30.16,30.03,16,5,26,0.06
2013-2-15,38.0,30.7,21.0,30.0,22.0,13.0,85,73,58,30.35,30.03,26,9,31,0.00
2013-2-16,28.0,23.5,20.0,19.0,14.0,7.0,95,70,50,30.34,30.17,14,4,18,0.00
2013-2-17,21.0,15.4,11.0,19.0,8.4,2.0,97,78,58,30.49,30.17,17,5,19,0.00
2013-2-18,37.0,23.1,10.0,22.0,10.9,4.0,92,65,37,30.54,30.12,11,3,14,0.00
2013-2-19,44.0,33.9,23.0,38.0,26.5,17.0,99,78,48,30.14,29.81,32,9,36,0.36
2013-2-20,24.0,20.2,18.0,18.0,12.3,9.0,91,75,65,30.38,30.04,26,10,31,0.00
2013-2-21,24.0,19.0,15.0,20.0,12.0,7.0,90,77,66,30.67,30.35,15,6,19,0.00
2013-2-22,36.0,28.3,20.0,32.0,22.8,15.0,98,83,65,30.65,30.24,13,4,15,0.01
2013-2-23,38.0,33.4,30.0,31.0,27.6,23.0,88,82,74,30.25,30.14,20,6,20,0.00
2013-2-24,32.0,29.8,27.0,26.0,24.0,22.0,94,83,76,30.36,30.13,17,6,19,0.00
2013-2-25,35.0,30.9,26.0,28.0,25.4,22.0,98,83,73,30.50,30.35,10,3,12,0.00
2013-2-26,43.0,34.1,26.0,35.0,26.1,22.0,100,77,48,30.49,29.95,19,6,20,0.74
2013-2-27,35.0,33.6,32.0,35.0,33.2,32.0,100,99,94,30.01,29.84,16,4,21,0.27
2013-2-28,35.0,32.8,31.0,35.0,32.5,30.0,100,99,92,30.03,29.80,13,5,16,0.00